Date String (YYYY-MM-DD hh:mm:ss) UTC,Instrument flags,Ambient pressure (hPa),Sample flow (lpm),Bypass flow (lpm),Sample temperature (°C),Ambient temperature (°C),ASC tube jacket temperature (°C),LED temperature (°C),Box temperature (°C),Sample RH (%),Span deviation,Mass concentration (μg/m³),Mass concentration (μg/m³),Mass concentration (μg/m³)
DateTimeUTC,F1_M11,P_M11,Q1_M11,Q2_M11,T1_M11,T2_M11,T3_M11,T4_M11,T5_M11,U1_M11,ZSPAN_M11,X2_M11,X0_M11,X1_M11
2022-09-02 05:00:00,,0825.8,5.01,0.00,29.9,29.0,00.0,38.5,31.8,15.1,0000.0,0006.66,0011.18,0006.09
2022-09-02 05:01:00,,0825.7,5.01,0.00,29.9,29.0,00.0,38.6,31.9,14.8,0000.0,0006.68,0010.76,0006.12
2022-09-02 05:02:00,,0825.8,4.99,0.00,29.9,28.0,00.0,38.6,31.8,14.8,0000.0,0006.71,0011.66,0006.14
2022-09-02 05:03:00,,0825.8,4.99,0.00,29.9,27.0,00.0,38.5,31.6,14.8,0000.0,0006.75,0012.73,0006.16
2022-09-02 05:04:00,,0825.9,5.00,0.00,29.8,27.0,00.0,38.5,31.6,14.9,0000.0,0006.80,0012.86,0006.17
2022-09-02 05:05:00,,0825.7,5.00,0.00,29.8,27.2,00.0,38.5,31.4,15.0,0000.0,0006.86,0013.06,0006.18
2022-09-02 05:06:00,,0825.7,4.99,0.00,29.7,27.5,00.0,38.5,31.5,14.9,0000.0,0006.88,0013.19,0006.19
2022-09-02 05:07:00,,0825.8,5.00,0.00,29.7,27.8,00.0,38.5,31.5,15.0,0000.0,0006.86,0012.97,0006.18
2022-09-02 05:08:00,,0825.7,5.00,0.00,29.7,28.1,00.0,38.5,31.5,15.0,0000.0,0006.90,0013.07,0006.19
2022-09-02 05:09:00,,0825.8,5.00,0.00,29.8,28.2,00.0,38.5,31.6,15.1,0000.0,0006.96,0013.35,0006.21
2022-09-02 05:10:00,,0825.7,5.01,0.00,29.8,28.4,00.0,38.5,31.6,15.0,0000.0,0006.96,0013.34,0006.21
2022-09-02 05:11:00,,0825.7,4.99,0.00,29.8,28.5,00.0,38.5,31.7,14.9,0000.0,0006.92,0013.29,0006.20
2022-09-02 05:12:00,,0825.8,4.99,0.00,29.8,28.6,00.0,38.5,31.7,14.8,0000.0,0006.90,0013.16,0006.19
2022-09-02 05:13:00,,0825.8,5.01,0.00,29.8,28.7,00.0,38.5,31.7,14.6,0000.0,0006.88,0013.11,0006.18
2022-09-02 05:14:00,,0825.8,5.00,0.00,29.9,28.8,00.0,38.6,31.7,14.5,0000.0,0006.88,0011.78,0006.19
2022-09-02 05:15:00,,0825.7,5.01,0.00,29.9,28.8,00.0,38.6,31.8,14.5,0000.0,0006.86,0011.59,0006.20
2022-09-02 05:16:00,,0825.7,4.98,0.00,29.9,28.9,00.0,38.6,31.8,14.5,0000.0,0006.81,0011.34,0006.20
2022-09-02 05:17:00,,0825.7,5.00,0.00,30.0,29.0,00.0,38.6,31.9,14.4,0000.0,0006.79,0011.04,0006.21
2022-09-02 05:18:00,,0825.7,5.00,0.00,30.0,29.0,00.0,38.7,31.9,14.3,0000.0,0006.80,0011.03,0006.22
2022-09-02 05:19:00,,0825.7,5.00,0.00,30.0,28.8,00.0,38.7,31.9,14.1,0000.0,0006.78,0010.79,0006.22
2022-09-02 05:20:00,,0825.7,4.98,0.00,30.0,27.5,00.0,38.7,31.7,14.0,0000.0,0006.74,0010.39,0006.22
2022-09-02 05:21:00,,0825.7,5.01,0.00,29.9,27.0,00.0,38.6,31.7,14.1,0000.0,0006.75,0010.12,0006.24
2022-09-02 05:22:00,,0825.7,5.00,0.00,29.9,27.1,00.0,38.6,31.6,14.1,0000.0,0006.77,0010.06,0006.26
2022-09-02 05:23:00,,0825.7,5.00,0.00,29.8,27.4,00.0,38.6,31.5,14.1,0000.0,0006.81,0010.16,0006.27
2022-09-02 05:24:00,,0825.7,5.01,0.00,29.8,27.7,00.0,38.6,31.5,14.0,0000.0,0006.82,0009.90,0006.28
2022-09-02 05:25:00,,0825.7,4.99,0.00,29.8,28.0,00.0,38.6,31.6,13.9,0000.0,0006.82,0009.84,0006.26
2022-09-02 05:26:00,,0825.7,5.01,0.00,29.8,28.2,00.0,38.6,31.6,13.8,0000.0,0006.79,0009.88,0006.23
2022-09-02 05:27:00,,0825.7,5.00,0.00,29.8,28.4,00.0,38.6,31.7,13.8,0000.0,0006.76,0009.94,0006.20
2022-09-02 05:28:00,,0825.7,4.98,0.00,29.8,28.5,00.0,38.6,31.7,13.8,0000.0,0006.71,0010.12,0006.17
2022-09-02 05:29:00,,0825.7,5.00,0.00,29.9,28.6,00.0,38.6,31.7,13.8,0000.0,0006.68,0010.35,0006.14
2022-09-02 05:30:00,,0825.7,5.01,0.00,29.9,28.7,00.0,38.6,31.8,13.9,0000.0,0006.64,0010.30,0006.12
2022-09-02 05:31:00,,0825.7,5.00,0.00,29.9,28.8,00.0,38.6,31.7,13.9,0000.0,0006.61,0010.32,0006.11
2022-09-02 05:32:00,,0825.7,4.99,0.00,29.9,28.9,00.0,38.6,31.8,13.9,0000.0,0006.56,0010.32,0006.06
2022-09-02 05:33:00,,0825.7,5.01,0.00,30.0,28.9,00.0,38.7,31.9,13.9,0000.0,0006.52,0010.25,0006.02
2022-09-02 05:34:00,,0825.7,5.00,0.00,30.0,29.0,00.0,38.7,31.9,13.9,0000.0,0006.48,0010.21,0005.99
2022-09-02 05:35:00,,0825.7,4.98,0.00,30.0,29.0,00.0,38.7,31.9,14.0,0000.0,0006.47,0010.25,0005.97
2022-09-02 05:36:00,,0825.7,4.99,0.00,30.0,28.3,00.0,38.7,31.9,13.8,0000.0,0006.45,0010.30,0005.96
2022-09-02 05:37:00,,0825.7,5.01,0.00,30.0,27.1,00.0,38.7,31.7,13.6,0000.0,0006.47,0010.29,0005.97
2022-09-02 05:38:00,,0825.7,4.99,0.00,30.0,27.1,00.0,38.7,31.7,13.6,0000.0,0006.46,0010.26,0005.97
2022-09-02 05:39:00,,0825.7,5.00,0.00,29.9,27.3,00.0,38.6,31.6,13.5,0000.0,0006.47,0010.08,0005.98
2022-09-02 05:40:00,,0825.7,4.99,0.00,29.8,27.6,00.0,38.6,31.6,13.6,0000.0,0006.51,0009.86,0005.98
2022-09-02 05:41:00,,0825.7,5.00,0.00,29.8,27.8,00.0,38.6,31.6,13.6,0000.0,0006.52,0009.87,0005.98
2022-09-02 05:42:00,,0825.7,5.00,0.00,29.8,28.1,00.0,38.6,31.6,13.8,0000.0,0006.56,0010.02,0005.98
2022-09-02 05:43:00,,0825.7,5.01,0.00,29.8,28.2,00.0,38.6,31.6,13.7,0000.0,0006.59,0010.08,0005.98
2022-09-02 05:44:00,,0825.7,5.01,0.00,29.8,28.4,00.0,38.6,31.7,13.4,0000.0,0006.61,0010.22,0005.99
2022-09-02 05:45:00,,0825.7,5.00,0.00,29.9,28.5,00.0,38.6,31.7,13.4,0000.0,0006.62,0010.19,0006.01
2022-09-02 05:46:00,,0825.7,4.98,0.00,29.9,28.6,00.0,38.6,31.8,13.3,0000.0,0006.58,0010.07,0006.01
2022-09-02 05:47:00,,0825.7,5.00,0.00,29.9,28.7,00.0,38.6,31.8,13.2,0000.0,0006.58,0010.79,0006.03
2022-09-02 05:48:00,,0825.7,5.01,0.00,29.9,28.8,00.0,38.6,31.8,13.2,0000.0,0006.58,0011.34,0006.03
2022-09-02 05:49:00,,0826.0,5.00,0.00,30.0,28.9,00.0,38.7,31.9,13.1,0000.0,0006.61,0011.36,0006.03
2022-09-02 05:50:00,,0826.1,4.98,0.00,30.0,29.0,00.0,38.7,31.9,13.2,0000.0,0006.64,0011.40,0006.04
2022-09-02 05:51:00,,0825.9,5.00,0.00,30.0,29.0,00.0,38.7,31.9,13.1,0000.0,0006.60,0011.40,0006.05
2022-09-02 05:52:00,,0825.8,5.01,0.00,30.0,29.1,00.0,38.7,32.0,13.1,0000.0,0006.59,0011.48,0006.06
2022-09-02 05:53:00,,0825.9,4.99,0.00,30.1,28.4,00.0,38.7,31.9,13.5,0000.0,0006.61,0011.59,0006.09
2022-09-02 05:54:00,,0826.0,5.00,0.00,30.0,27.1,00.0,38.7,31.7,13.9,0000.0,0006.60,0011.50,0006.10
2022-09-02 05:55:00,,0825.9,4.99,0.00,30.0,27.0,00.0,38.7,31.7,14.0,0000.0,0006.59,0011.40,0006.11
2022-09-02 05:56:00,,0825.9,5.00,0.00,29.9,27.2,00.0,38.6,31.6,13.9,0000.0,0006.64,0011.48,0006.13
2022-09-02 05:57:00,,0825.9,5.01,0.00,29.9,27.5,00.0,38.6,31.6,13.8,0000.0,0006.69,0011.53,0006.16
2022-09-02 05:58:00,,0825.9,5.00,0.00,29.9,27.8,00.0,38.6,31.6,13.7,0000.0,0006.71,0010.60,0006.19
2022-09-02 05:59:00,,0825.9,5.00,0.00,29.9,28.1,00.0,38.6,31.7,13.4,0000.0,0006.76,0010.18,0006.21
